Regional Weather Roundup
Issued by NWS Albany, NY

Home | Current Version | Previous Version | Text Only | Print | Product List | Glossary On
Versions: 1 2 3 4 5 6 7 8 9 10 11 12 13 14 15 16 17 18 19 20 21 22 23 24 25 26 27 28 29 30 31 32 33 34 35 36 37 38 39 40 41 42 43 44 45 46 47 48 49 50
000
ASUS41 KALY 230210
RWRALY

NEW YORK STATE HOURLY WEATHER ROUNDUP
NATIONAL WEATHER SERVICE ALBANY NY
900 PM EST SAT NOV 22 2014

NOTE: "FAIR" INDICATES FEW OR NO CLOUDS BELOW 12,000 FEET WITH NO
SIGNIFICANT WEATHER AND/OR NO OBSTRUCTIONS TO VISIBILITY.

NYZ032-033-038>043-046>054-057>066-NYZ062>081-230300-
EAST


CITY           SKY/WX    TMP DP  RH WIND       PRES   REMARKS
ALBANY         CLOUDY    39  22  50 S10       30.08F WCI  32
GLENS FALLS    CLOUDY    36  20  52 S13       30.03F WCI  27
POUGHKEEPSIE   CLOUDY    43  15  32 SW9G17    30.18S
NEWBURGH       CLOUDY    39  18  41 W9        30.17F WCI  33
MONTGOMERY     CLOUDY    39  16  39 S9        30.16F WCI  33
WHITE PLAINS   CLOUDY    41  16  36 W7        30.20S
ISLIP          CLOUDY    44  24  45 W17       30.22S
NEW YORK CITY  MOCLDY    44  19  36 SW14G22   30.22F
CENTRAL PARK   MOCLDY    43  18  36 MISG      30.24S
$$

NYZ005>009-017-018-044>046-055-056-230300-
CENTRAL


CITY           SKY/WX    TMP DP  RH WIND       PRES   REMARKS
FULTON         LGT RAIN  41  36  82 S9        30.00S
SYRACUSE       LGT RAIN  46  38  73 SW13      30.02S
ROME           CLOUDY    35  33  92 E8        30.05S WCI  29
ELMIRA         LGT RAIN  43  34  70 SW15G23   30.06F
BINGHAMTON     LGT RAIN  36  31  82 SW15      30.06S WCI  27
MONTICELLO     CLOUDY    37  19  48 W3        30.14S
$$

NYZ026>034-041>043-230300-
NORTH


CITY           SKY/WX    TMP DP  RH WIND       PRES   REMARKS
WATERTOWN      LGT RAIN  42  36  79 S12G21    29.96S
FORT DRUM      NOT AVBL
MASSENA        LGT RAIN  38  37  97 SW14      29.92R FOG     WCI  30
SARANAC LAKE   CLOUDY    35  33  92 SW13G22   29.89S FOG     WCI  26
PLATTSBURGH    CLOUDY    36  26  67 S3        29.93S
$$

NYZ001>004-010>016-019>021-230300-
WEST


CITY           SKY/WX    TMP DP  RH WIND       PRES   REMARKS
NIAGARA FALLS  LGT RAIN  45  40  82 SW17G25   29.96F
BUFFALO        LGT RAIN  40  36  86 SW16      29.97F WCI  31
DUNKIRK        LGT RAIN  42  37  82 S18G24    30.00S
JAMESTOWN      CLOUDY    37  34  87 S14       30.03F WCI  29
WELLSVILLE     LGT RAIN  39  34  82 SW13G22   30.05S WCI  31
ROCHESTER      LGT RAIN  45  40  82 SW15      29.97S
PENN YAN       LGT RAIN  42  36  79 S16       30.01S
$$

             KEY
       WCI = WIND CHILL INDEX
       VSB = VISIBILITY
       HX  = HEAT INDEX
$$



USA.gov is the U.S. government's official web portal to all federal, state and local government web resources and services.